Total_Precipitation_Accumulation
0.87 0.93 0.92 0.97 1.07 1.35 1.57 1.50 1.32 1.33 1.37 1.34 1.26 1.33 1.49 1.63 1.73 1.84 1.90 1.90 1.90 2.01 1.96 1.89 1.95 2.05 2.27 2.23 2.21 2.14 2.03 1.91 1.82 1.62 1.28 1.07 1.08 1.08 1.01 0.85 0.70 0.65 0.56
0.70 0.77 0.84 0.85 0.94 1.07 1.19 1.21 1.14 1.07 1.05 1.10 1.14 1.14 1.23 1.41 1.52 1.56 1.59 1.63 1.67 1.75 1.79 1.72 1.72 1.80 1.92 2.11 2.17 2.12 2.09 1.99 1.92 1.84 1.54 1.22 1.07 1.05 1.02 1.01 0.84 0.68 0.60
0.64 0.69 0.77 0.80 0.82 0.84 0.85 0.78 0.81 0.84 0.91 0.97 1.08 1.13 1.22 1.30 1.44 1.47 1.45 1.42 1.45 1.49 1.59 1.63 1.65 1.70 1.72 1.82 1.79 1.87 1.95 2.06 2.07 1.95 1.75 1.49 1.29 1.16 1.07 1.00 0.91 0.85 0.72
0.74 0.81 0.86 0.87 0.87 0.87 0.85 0.81 0.80 0.83 0.88 0.98 1.16 1.24 1.25 1.27 1.29 1.34 1.40 1.36 1.27 1.23 1.26 1.30 1.40 1.51 1.54 1.68 1.64 1.62 1.75 1.94 2.15 2.12 1.95 1.68 1.50 1.37 1.23 1.14 1.12 1.00 0.89
0.65 0.77 0.83 0.86 0.87 0.84 0.77 0.75 0.79 0.76 0.75 0.89 1.05 1.21 1.26 1.24 1.21 1.29 1.35 1.36 1.29 1.15 1.11 1.13 1.16 1.28 1.52 1.58 1.50 1.63 1.77 1.80 1.91 1.98 1.96 1.83 1.63 1.45 1.25 1.12 1.11 1.13 1.04
0.55 0.65 0.81 0.87 0.80 0.76 0.69 0.68 0.71 0.69 0.66 0.75 0.90 1.07 1.16 1.15 1.54 1.53 1.37 1.34 1.31 1.16 1.07 1.07 1.03 1.02 1.22 1.47 1.55 1.60 1.73 1.82 1.82 1.80 1.81 1.71 1.58 1.47 1.44 1.35 1.24 1.15 1.09
0.48 0.60 0.80 0.81 0.70 0.65 0.71 0.75 0.72 0.69 0.70 0.74 0.78 0.81 0.90 1.19 1.24 1.03 1.09 1.13 1.23 1.13 1.00 0.93 0.84 0.81 0.94 1.02 1.14 1.23 1.42 1.71 1.86 1.81 1.66 1.55 1.60 1.50 1.46 1.40 1.32 1.22 1.11
0.41 0.50 0.65 0.68 0.66 0.69 0.70 0.68 0.63 0.59 0.57 0.61 0.63 0.68 0.75 0.89 0.89 0.84 0.93 0.89 1.02 1.02 0.93 0.88 0.85 0.80 0.86 0.92 1.03 1.14 1.17 1.26 1.44 1.44 1.38 1.41 1.48 1.53 1.48 1.45 1.51 1.47 1.38
0.28 0.37 0.46 0.50 0.54 0.57 0.56 0.56 0.52 0.49 0.51 0.52 0.56 0.64 0.72 0.72 0.75 0.74 0.79 0.89 1.03 1.00 0.90 0.90 0.87 0.84 0.98 1.05 1.01 1.03 1.14 1.17 1.28 1.37 1.51 1.53 1.42 1.37 1.40 1.38 1.45 1.47 1.43
0.20 0.27 0.34 0.37 0.41 0.43 0.48 0.51 0.51 0.48 0.46 0.46 0.49 0.53 0.61 0.64 0.77 0.64 0.73 0.91 1.01 1.02 0.99 0.92 1.02 0.99 1.08 1.05 0.98 1.07 1.18 1.06 0.99 1.03 1.12 1.18 1.10 1.09 1.21 1.16 1.24 1.30 1.23
0.11 0.16 0.23 0.30 0.38 0.45 0.51 0.52 0.55 0.52 0.47 0.46 0.54 0.55 0.54 0.64 0.76 0.71 0.73 0.81 1.00 1.02 1.04 1.00 0.90 0.95 0.93 0.98 1.06 1.13 1.31 1.16 1.00 1.02 1.08 1.08 0.99 0.97 0.99 1.03 1.10 1.18 1.16
0.06 0.11 0.18 0.26 0.33 0.42 0.51 0.54 0.54 0.54 0.53 0.54 0.56 0.59 0.57 0.56 0.63 0.67 0.68 0.75 0.86 0.89 0.97 0.93 0.86 0.90 0.77 0.79 0.86 1.01 1.27 1.16 0.98 1.01 1.05 1.05 1.00 0.95 0.97 0.97 1.01 1.05 1.03
0.03 0.06 0.11 0.15 0.19 0.25 0.33 0.41 0.47 0.51 0.53 0.54 0.58 0.66 0.68 0.62 0.65 0.75 0.61 0.58 0.65 0.69 0.70 0.78 0.75 0.73 0.67 0.64 0.74 0.86 0.98 1.10 1.07 1.00 0.95 0.92 0.91 0.90 0.93 0.91 0.90 0.93 0.91
0.01 0.03 0.05 0.06 0.07 0.10 0.20 0.28 0.35 0.42 0.48 0.55 0.62 0.70 0.78 0.73 0.65 0.60 0.52 0.49 0.52 0.49 0.45 0.45 0.48 0.53 0.52 0.54 0.61 0.67 0.80 0.99 1.09 1.00 0.89 0.87 0.88 0.86 0.86 0.81 0.81 0.84 0.85
0.01 0.01 0.02 0.04 0.06 0.08 0.14 0.22 0.27 0.34 0.37 0.41 0.52 0.64 0.68 0.66 0.65 0.71 0.69 0.65 0.61 0.58 0.53 0.47 0.44 0.47 0.53 0.57 0.60 0.63 0.71 0.83 0.89 0.86 0.80 0.76 0.80 0.84 0.83 0.77 0.71 0.73 0.73
0.06 0.03 0.02 0.03 0.06 0.08 0.11 0.13 0.13 0.16 0.16 0.20 0.25 0.30 0.34 0.37 0.39 0.38 0.45 0.52 0.51 0.49 0.61 0.66 0.62 0.65 0.64 0.61 0.63 0.58 0.55 0.60 0.71 0.76 0.74 0.69 0.67 0.73 0.78 0.76 0.72 0.71 0.69
0.14 0.11 0.07 0.05 0.05 0.06 0.07 0.10 0.11 0.07 0.05 0.07 0.09 0.14 0.20 0.21 0.22 0.22 0.25 0.33 0.41 0.46 0.61 0.64 0.56 0.50 0.49 0.48 0.50 0.50 0.49 0.48 0.51 0.60 0.64 0.64 0.60 0.64 0.74 0.79 0.77 0.77 0.75
0.03 0.03 0.05 0.08 0.05 0.04 0.07 0.13 0.19 0.21 0.15 0.08 0.04 0.06 0.11 0.15 0.16 0.18 0.20 0.26 0.28 0.33 0.42 0.49 0.45 0.40 0.35 0.34 0.33 0.32 0.35 0.38 0.41 0.45 0.50 0.53 0.57 0.60 0.65 0.73 0.76 0.74 0.74
0.01 0.03 0.09 0.10 0.06 0.05 0.10 0.18 0.20 0.19 0.18 0.12 0.06 0.03 0.05 0.07 0.09 0.10 0.14 0.19 0.19 0.18 0.20 0.28 0.32 0.31 0.27 0.22 0.18 0.16 0.17 0.19 0.23 0.30 0.37 0.42 0.46 0.51 0.56 0.61 0.66 0.71 0.72
0.02 0.02 0.09 0.14 0.08 0.08 0.10 0.10 0.10 0.12 0.10 0.07 0.06 0.05 0.04 0.06 0.07 0.06 0.06 0.08 0.09 0.10 0.12 0.16 0.19 0.20 0.19 0.17 0.14 0.11 0.12 0.14 0.15 0.19 0.26 0.34 0.36 0.37 0.40 0.47 0.54 0.57 0.57
0.06 0.03 0.03 0.14 0.17 0.14 0.12 0.10 0.11 0.13 0.09 0.05 0.03 0.01 0.02 0.05 0.07 0.07 0.05 0.07 0.08 0.10 0.11 0.11 0.12 0.16 0.15 0.14 0.13 0.13 0.12 0.13 0.12 0.14 0.17 0.21 0.25 0.28 0.30 0.32 0.35 0.40 0.45
0.02 0.03 0.04 0.13 0.18 0.14 0.11 0.11 0.12 0.10 0.08 0.05 0.03 0.01 0.02 0.04 0.06 0.07 0.05 0.07 0.08 0.09 0.09 0.08 0.10 0.14 0.15 0.12 0.12 0.14 0.15 0.14 0.12 0.13 0.16 0.19 0.20 0.21 0.22 0.23 0.25 0.27 0.29
0.01 0.02 0.03 0.07 0.08 0.04 0.05 0.08 0.09 0.09 0.06 0.04 0.03 0.02 0.03 0.04 0.04 0.05 0.06 0.09 0.12 0.12 0.10 0.08 0.10 0.15 0.17 0.18 0.16 0.18 0.18 0.18 0.16 0.14 0.16 0.19 0.21 0.22 0.22 0.22 0.23 0.26 0.30
0.01 0.01 0.02 0.04 0.04 0.05 0.08 0.09 0.07 0.06 0.06 0.04 0.03 0.04 0.05 0.05 0.05 0.05 0.06 0.09 0.12 0.13 0.10 0.09 0.10 0.12 0.16 0.20 0.23 0.23 0.22 0.21 0.17 0.15 0.15 0.17 0.19 0.20 0.21 0.23 0.26 0.27 0.31
0.02 0.01 0.02 0.03 0.04 0.05 0.05 0.07 0.07 0.06 0.07 0.06 0.06 0.04 0.05 0.06 0.07 0.05 0.04 0.06 0.08 0.09 0.08 0.09 0.11 0.15 0.18 0.20 0.23 0.26 0.32 0.32 0.25 0.20 0.18 0.18 0.20 0.22 0.24 0.27 0.30 0.33 0.37
0.02 0.01 0.02 0.04 0.05 0.06 0.06 0.07 0.06 0.06 0.07 0.07 0.06 0.06 0.07 0.07 0.06 0.05 0.05 0.06 0.06 0.07 0.10 0.11 0.13 0.16 0.19 0.20 0.19 0.21 0.24 0.23 0.22 0.22 0.19 0.19 0.21 0.23 0.28 0.32 0.35 0.39 0.44